Date String (YYYY-MM-DD hh:mm:ss) UTC,Instrument flags,absolute air pressure of the measurement (hPa),sample flow rate (lpm),inlet stack bypass flow (lpm),air temperature of the measurement (°C),ambient temperature measured by the external sensor (°C),aerosol sample conditioner tube jacket temperature (°C),OPC LED temperature (°C),internal box temperature (°C),relative humidity of the measurement (%),span deviation,mass concentration of particles derived from Lorenz-Mie calculation of OPC scattering (μg/m³),mass concentration of particles derived from Lorenz-Mie calculation of OPC scattering (μg/m³),mass concentration of particles derived from Lorenz-Mie calculation of OPC scattering (μg/m³)
DateTimeUTC,F1_M11,P_M11,Q1_M11,Q2_M11,T1_M11,T2_M11,T3_M11,T4_M11,T5_M11,U1_M11,ZSPAN_M11,X0_M11,X2_M11,X1_M11
2024-02-09 23:00:00,SystemResetWarning,0821.8,5.00,000.00,021.2,020.8,000.0,029.5,023.0,17.0,0000.0,0011.20,0004.70,0004.16
2024-02-09 23:01:00,SystemResetWarning,0821.8,4.99,000.00,021.2,020.8,000.0,029.5,023.0,16.9,0000.0,0009.99,0004.69,0004.15
2024-02-09 23:02:00,SystemResetWarning,0821.8,4.99,000.00,021.2,020.8,000.0,029.5,023.0,16.7,0000.0,0009.73,0004.69,0004.14
2024-02-09 23:03:00,SystemResetWarning,0821.8,5.00,000.00,021.2,020.8,000.0,029.5,023.0,16.7,0000.0,0009.96,0004.72,0004.14
2024-02-09 23:04:00,SystemResetWarning,0821.8,5.01,000.00,021.2,020.8,000.0,029.5,023.0,16.7,0000.0,0009.86,0004.69,0004.14
2024-02-09 23:05:00,SystemResetWarning,0821.8,5.01,000.00,021.2,020.8,000.0,029.6,023.0,16.7,0000.0,0010.45,0004.71,0004.14
2024-02-09 23:06:00,SystemResetWarning,0821.9,5.01,000.00,021.2,020.8,000.0,029.6,023.0,16.8,0000.0,0011.65,0004.75,0004.14
2024-02-09 23:07:00,SystemResetWarning,0821.9,5.00,000.00,021.2,020.8,000.0,029.6,023.0,16.8,0000.0,0011.86,0004.73,0004.12
2024-02-09 23:08:00,SystemResetWarning,0821.9,5.00,000.00,021.2,020.8,000.0,029.6,023.0,16.7,0000.0,0011.65,0004.71,0004.11
2024-02-09 23:09:00,SystemResetWarning,0821.9,5.00,000.00,021.3,020.8,000.0,029.6,023.1,16.8,0000.0,0010.91,0004.69,0004.11
2024-02-09 23:10:00,SystemResetWarning,0821.9,5.00,000.00,021.3,020.8,000.0,029.6,023.1,16.9,0000.0,0011.08,0004.69,0004.09
2024-02-09 23:11:00,SystemResetWarning,0821.9,5.00,000.00,021.3,020.9,000.0,029.6,023.1,16.7,0000.0,0011.15,0004.68,0004.09
2024-02-09 23:12:00,SystemResetWarning,0821.9,5.00,000.00,021.3,020.9,000.0,029.6,023.1,16.7,0000.0,0010.96,0004.67,0004.10
2024-02-09 23:13:00,SystemResetWarning,0821.9,5.00,000.00,021.3,020.9,000.0,029.6,023.1,16.6,0000.0,0010.94,0004.66,0004.10
2024-02-09 23:14:00,SystemResetWarning,0821.9,5.00,000.00,021.3,020.9,000.0,029.6,023.2,16.7,0000.0,0010.80,0004.61,0004.09
2024-02-09 23:15:00,SystemResetWarning,0821.9,5.00,000.00,021.3,020.9,000.0,029.6,023.2,16.6,0000.0,0010.81,0004.59,0004.09
2024-02-09 23:16:00,SystemResetWarning,0821.9,5.00,000.00,021.4,020.9,000.0,029.7,023.2,16.6,0000.0,0010.62,0004.57,0004.08
2024-02-09 23:17:00,SystemResetWarning,0822.0,5.01,000.00,021.4,021.0,000.0,029.7,023.2,16.6,0000.0,0009.14,0004.54,0004.08
2024-02-09 23:18:00,SystemResetWarning,0822.0,4.99,000.00,021.4,021.0,000.0,029.7,023.2,16.4,0000.0,0009.37,0004.52,0004.07
2024-02-09 23:19:00,SystemResetWarning,0822.0,5.00,000.00,021.4,021.0,000.0,029.7,023.2,16.4,0000.0,0009.25,0004.50,0004.06
2024-02-09 23:20:00,SystemResetWarning,0822.0,5.00,000.00,021.4,021.0,000.0,029.7,023.2,16.1,0000.0,0009.20,0004.50,0004.05
2024-02-09 23:21:00,SystemResetWarning,0822.0,5.00,000.00,021.4,021.0,000.0,029.7,023.2,16.2,0000.0,0008.98,0004.50,0004.04
2024-02-09 23:22:00,SystemResetWarning,0821.9,5.00,000.00,021.4,021.0,000.0,029.7,023.2,16.1,0000.0,0008.78,0004.46,0004.03
2024-02-09 23:23:00,SystemResetWarning,0822.0,5.00,000.00,021.4,021.0,000.0,029.7,023.2,16.3,0000.0,0008.68,0004.44,0004.01
2024-02-09 23:24:00,SystemResetWarning,0821.9,5.00,000.00,021.4,021.0,000.0,029.7,023.2,16.1,0000.0,0008.59,0004.41,0003.98
2024-02-09 23:25:00,SystemResetWarning,0821.9,4.99,000.00,021.4,021.0,000.0,029.7,023.2,16.3,0000.0,0008.51,0004.43,0003.97
2024-02-09 23:26:00,SystemResetWarning,0822.0,4.99,000.00,021.4,021.0,000.0,029.8,023.2,16.1,0000.0,0008.53,0004.43,0003.95
2024-02-09 23:27:00,SystemResetWarning,0822.0,5.01,000.00,021.4,021.0,000.0,029.8,023.2,16.1,0000.0,0008.57,0004.41,0003.93
2024-02-09 23:28:00,SystemResetWarning,0822.0,5.01,000.00,021.4,021.0,000.0,029.8,023.3,16.2,0000.0,0008.46,0004.37,0003.93
2024-02-09 23:29:00,SystemResetWarning,0822.0,5.01,000.00,021.5,021.0,000.0,029.8,023.3,16.3,0000.0,0008.27,0004.41,0003.93
2024-02-09 23:30:00,SystemResetWarning,0821.9,5.01,000.00,021.5,021.0,000.0,029.8,023.3,16.3,0000.0,0008.04,0004.42,0003.93
2024-02-09 23:31:00,SystemResetWarning,0822.0,5.00,000.00,021.5,021.0,000.0,029.8,023.3,16.4,0000.0,0008.18,0004.40,0003.93
2024-02-09 23:32:00,SystemResetWarning,0821.9,4.99,000.00,021.5,021.1,000.0,029.8,023.3,16.5,0000.0,0008.09,0004.39,0003.93
2024-02-09 23:33:00,SystemResetWarning,0822.0,5.00,000.00,021.5,021.1,000.0,029.8,023.3,16.5,0000.0,0007.90,0004.38,0003.94
2024-02-09 23:34:00,SystemResetWarning,0821.9,5.00,000.00,021.5,021.1,000.0,029.8,023.3,16.3,0000.0,0007.93,0004.40,0003.95
2024-02-09 23:35:00,SystemResetWarning,0822.0,5.01,000.00,021.5,021.1,000.0,029.8,023.3,16.2,0000.0,0007.76,0004.41,0003.96
2024-02-09 23:36:00,SystemResetWarning,0822.0,5.01,000.00,021.5,021.1,000.0,029.9,023.3,16.2,0000.0,0008.25,0004.42,0003.96
2024-02-09 23:37:00,SystemResetWarning,0822.0,5.00,000.00,021.5,021.1,000.0,029.9,023.3,16.3,0000.0,0009.07,0004.44,0003.98
2024-02-09 23:38:00,SystemResetWarning,0822.0,4.99,000.00,021.5,021.1,000.0,029.9,023.3,16.4,0000.0,0009.68,0004.47,0004.00
2024-02-09 23:39:00,SystemResetWarning,0822.1,4.99,000.00,021.5,021.1,000.0,029.9,023.3,16.4,0000.0,0010.55,0004.46,0004.00
2024-02-09 23:40:00,SystemResetWarning,0822.0,5.00,000.00,021.5,021.1,000.0,029.9,023.3,16.5,0000.0,0010.41,0004.43,0003.99
2024-02-09 23:41:00,SystemResetWarning,0822.1,5.00,000.00,021.5,021.1,000.0,029.9,023.3,16.4,0000.0,0010.26,0004.39,0003.99
2024-02-09 23:42:00,SystemResetWarning,0822.0,4.99,000.00,021.5,021.1,000.0,029.9,023.3,16.5,0000.0,0010.31,0004.37,0004.00
2024-02-09 23:43:00,SystemResetWarning,0822.1,5.01,000.00,021.5,021.1,000.0,029.9,023.3,16.3,0000.0,0010.63,0004.40,0004.00
2024-02-09 23:44:00,SystemResetWarning,0822.1,5.01,000.00,021.5,021.1,000.0,029.9,023.3,16.3,0000.0,0010.69,0004.44,0004.00
2024-02-09 23:45:00,SystemResetWarning,0822.1,5.01,000.00,021.5,021.1,000.0,029.9,023.3,16.3,0000.0,0010.75,0004.46,0004.00
2024-02-09 23:46:00,SystemResetWarning,0822.1,4.99,000.00,021.6,021.1,000.0,029.9,023.4,16.3,0000.0,0010.84,0004.47,0004.01
2024-02-09 23:47:00,SystemResetWarning,0822.1,4.99,000.00,021.6,021.1,000.0,029.9,023.4,16.3,0000.0,0010.52,0004.43,0004.01
2024-02-09 23:48:00,SystemResetWarning,0822.1,4.99,000.00,021.6,021.1,000.0,029.9,023.4,16.2,0000.0,0009.65,0004.40,0004.00
2024-02-09 23:49:00,SystemResetWarning,0822.1,5.00,000.00,021.6,021.1,000.0,029.9,023.4,16.2,0000.0,0008.90,0004.36,0003.99
2024-02-09 23:50:00,SystemResetWarning,0822.1,5.01,000.00,021.6,021.2,000.0,029.9,023.4,16.1,0000.0,0008.14,0004.40,0004.01
2024-02-09 23:51:00,SystemResetWarning,0822.1,5.00,000.00,021.6,021.2,000.0,029.9,023.4,16.1,0000.0,0008.03,0004.44,0004.02
2024-02-09 23:52:00,SystemResetWarning,0822.2,5.00,000.00,021.6,021.2,000.0,030.0,023.4,16.0,0000.0,0008.05,0004.44,0004.02
2024-02-09 23:53:00,SystemResetWarning,0822.2,5.00,000.00,021.6,021.2,000.0,030.0,023.4,16.0,0000.0,0007.90,0004.46,0004.02
2024-02-09 23:54:00,SystemResetWarning,0822.3,5.00,000.00,021.6,021.2,000.0,030.0,023.5,16.0,0000.0,0007.90,0004.45,0004.03
2024-02-09 23:55:00,SystemResetWarning,0822.2,5.00,000.00,021.6,021.2,000.0,030.0,023.5,16.0,0000.0,0007.86,0004.41,0004.03
2024-02-09 23:56:00,SystemResetWarning,0822.2,5.00,000.00,021.7,021.2,000.0,030.0,023.5,16.0,0000.0,0007.96,0004.42,0004.04
2024-02-09 23:57:00,SystemResetWarning,0822.2,5.01,000.00,021.7,021.2,000.0,030.0,023.5,16.0,0000.0,0007.97,0004.42,0004.03
2024-02-09 23:58:00,SystemResetWarning,0822.2,5.00,000.00,021.7,021.2,000.0,030.0,023.5,15.8,0000.0,0007.85,0004.46,0004.04
2024-02-09 23:59:00,SystemResetWarning,0822.2,5.00,000.00,021.7,021.2,000.0,030.0,023.5,15.8,0000.0,0007.90,0004.49,0004.05
